Regional Weather Roundup
Issued by NWS

Home | Current Version | Previous Version | Graphics & Text | Print | Product List | Glossary On
Versions: 1 2 3 4 5 6 7 8 9 10 11 12 13 14 15 16 17 18 19 20 21 22 23 24 25 26 27 28 29 30 31 32 33 34 35 36 37 38 39 40 41 42 43 44 45 46 47 48 49 50
000
ASUS43 KLSX 011207
RWRMO

WEATHER SUMMARY FOR MISSOURI
NATIONAL WEATHER SERVICE SPRINGFIELD MO
600 AM CST SUN FEB 01 2015

NOTE: "FAIR" INDICATES FEW OR NO CLOUDS BELOW 12,000 FEET WITH NO
       SIGNIFICANT WEATHER AND/OR OBSTRUCTIONS TO VISIBILITY.
       CURRENT SKY AND/OR WEATHER CONDITIONS ARE NOT AVAILABLE FOR
       CHILLICOTHE AND FARMINGTON.

MOZ001>031-035>038-043-044-053-054-011300-
...NORTHERN AND WESTERN MISSOURI...

CITY           SKY/WX    TMP DP  RH WIND       PRES   REMARKS
KANSAS CTY INT LGT RAIN  33  33 100 NE3       29.71F VSB 1
6HR MIN TEMP:  32; 6HR MAX TEMP:  33; 6HR PCP:  0.23;

KANSAS C DTWN  MIX PCPN  34  33  96 CALM      29.71F
6HR MIN TEMP:  33; 6HR MAX TEMP:  34; 6HR PCP:  0.14;

LEE`S SUMMIT   LGT RAIN  34  32  92 SE3       29.71S FOG
6HR MIN TEMP:  33; 6HR MAX TEMP:  34; 6HR PCP:  0.30;

ST JOSEPH      LGT SNOW  32  32 100 N3        29.73F FOG
6HR MIN TEMP:  32; 6HR MAX TEMP:  32; 6HR PCP:  0.18;

CHILLICOTHE      N/A     33  32  96 CALM      29.74F
6HR MIN TEMP:  33; 6HR MAX TEMP:  34; 6HR PCP:  0.35;

KIRKSVILLE     LGT SNOW  32  32 100 SE7       29.75F FOG     WCI  26
6HR MIN TEMP:  32; 6HR MAX TEMP:  33; 6HR PCP:  0.48;


$$
MOZ066>068-077>081-088>096-101>105-011300-
...SOUTHWEST MISSOURI...

CITY           SKY/WX    TMP DP  RH WIND       PRES   REMARKS
SPRINGFIELD    CLOUDY    38  36  92 SE8       29.72F FOG
6HR MIN TEMP:  37; 6HR MAX TEMP:  38; 6HR PCP:  0.30;

JOPLIN         LGT RAIN  41  40  96 S10       29.73F FOG
6HR MIN TEMP:  39; 6HR MAX TEMP:  41; 6HR PCP:  0.33;


$$
MOZ032>034-039>042-045>050-055>058-069>072-011300-
...CENTRAL MISSOURI...

CITY           SKY/WX    TMP DP  RH WIND       PRES   REMARKS
COLUMBIA       LGT RAIN  33  32  96 SE6       29.76F FOG     WCI  28
6HR MIN TEMP:  33; 6HR MAX TEMP:  35; 6HR PCP:  0.35;

JEFFERSON CITY LGT RAIN  35  33  92 E8        29.77F FOG     WCI  29
6HR MIN TEMP:  34; 6HR MAX TEMP:  36; 6HR PCP:  0.36;

ROLLA          LGT RAIN  34  33  96 SE8       29.74F FOG     WCI  27
6HR MIN TEMP:  34; 6HR MAX TEMP:  35; 6HR PCP:  0.66;

SEDALIA        LGT RAIN  34  32  92 SE7       29.73F FOG     WCI  28
6HR MIN TEMP:  33; 6HR MAX TEMP:  35; 6HR PCP:  0.26;

WHITEMAN AFB   DRIZZLE   34  32  93 S5        29.72F WCI  30
WARRENSBURG    DRIZZLE   32  32 100 SE5       29.73S WCI  27
OSAGE BEACH    CLOUDY    36  34  93 SE5       29.74F

$$
MOZ051-052-059>065-011300-
...EAST CENTRAL MISSOURI...

CITY           SKY/WX    TMP DP  RH WIND       PRES   REMARKS
ST LOUIS INTL  LGT RAIN  35  32  88 SE12      29.83F FOG     WCI  27
6HR MIN TEMP:  35; 6HR MAX TEMP:  41; 6HR PCP:  0.54;

SPIRIT OF STL  LGT RAIN  35  32  88 SE6       29.81F
6HR MIN TEMP:  34; 6HR MAX TEMP:  40; 6HR PCP:  0.47;

ST CHARLES     LGT RAIN  34  32  92 E9        29.82F FOG     WCI  27
6HR MIN TEMP:  34; 6HR MAX TEMP:  37; 6HR PCP:  0.32;


$$
MOZ072>076-082>087-097>100-106>115-011300-
...SOUTH CENTRAL AND SOUTHEAST MISSOURI...

CITY           SKY/WX    TMP DP  RH WIND       PRES   REMARKS
CAPE GIRARDEAU LGT RAIN  43  36  76 S15       29.84F
6HR MIN TEMP:  39; 6HR MAX TEMP:  44; 6HR PCP:  0.07;

FARMINGTON     CLOUDY    36  34  93 CALM      29.82R
6HR MIN TEMP:  36; 6HR MAX TEMP:  39; 6HR PCP:  0.20;

POPLAR BLUFF   RAIN      41  36  82 S6        29.82F
6HR MIN TEMP:  37; 6HR MAX TEMP:  41; 6HR PCP:  0.23;

WEST PLAINS    LGT RAIN  38  36  92 S7        29.77F FOG
6HR MIN TEMP:  36; 6HR MAX TEMP:  39; 6HR PCP:  0.45;


$$


USA.gov is the U.S. government's official web portal to all federal, state and local government web resources and services.